Location: Unspecified
(40.7945°N, 111.1337°W)
Time: 02:06:13
(UTC-06:00)

CZ-3 Stage 3 - Visible Passes

Search period start: 22 August 2018 00:00
Search period end: 01 September 2018 00:00
Orbit: 374 x 34818 km, 30.6° (Epoch: 20 August)

Date Brightness Start Highest point End Pass type
(mag) Time Alt. Az. Time Alt. Az. Time Alt. Az.
22 Aug 6.3 00:05:14 10° WSW 01:54:47 23° WSW 08:42:21 10° SSW visible
22 Aug 7.1 19:56:15 10° SSW 00:12:04 57° SW 05:10:57 10° SE visible
23 Aug 8.0 17:05:21 10° ESE 23:52:19 64° ESE 01:29:19 10° E visible
24 Aug 8.9 17:53:40 10° E 20:07:35 21° E 21:19:42 10° ENE visible
24 Aug 6.3 23:53:36 10° WSW 01:44:14 23° WSW 08:32:07 10° SSW visible
25 Aug 7.1 19:45:30 10° SSW 23:59:31 58° SW 05:00:54 10° SE visible
26 Aug 8.0 16:52:06 10° ESE 23:40:16 64° ESE 01:19:12 10° E visible
27 Aug 8.9 17:40:47 10° E 19:56:05 21° E 21:09:06 10° ENE visible
27 Aug 6.3 23:42:00 10° WSW 01:33:41 24° WSW 08:21:50 10° SSW visible
28 Aug 7.1 19:34:45 10° SSW 23:47:00 59° SW 04:50:49 10° SE visible
29 Aug 8.0 16:38:55 10° ESE 23:28:11 64° ESE 01:09:02 10° E visible
30 Aug 8.9 17:28:00 10° ENE 19:44:33 21° ENE 20:58:24 10° ENE visible
30 Aug 6.4 23:30:27 10° WSW 01:23:07 24° WSW 08:11:30 10° SSW visible
